Wind_Speed
12 12 11 11 12 12 13 14 15 15 14 13 13 13 13 12 11 10 10 9 9 9 9 9 9 9 9 8 7 8 8 9 8 7 7 6 6 5 5 6 5 4 4 3 2 2 2 2 2
13 12 12 12 13 14 15 16 17 16 15 14 14 13 13 12 11 10 10 9 9 9 8 8 9 9 9 8 7 8 8 8 7 6 5 5 5 5 5 5 4 3 3 3 2 2 2 2 2
12 12 12 13 13 14 15 16 17 17 15 15 14 13 13 12 11 10 10 9 9 9 9 9 9 9 8 9 9 9 8 7 7 6 5 5 4 4 5 4 3 3 3 3 3 3 2 2 2
12 12 12 13 13 15 15 15 16 16 15 15 14 13 12 12 10 10 10 10 9 9 9 10 10 9 8 9 10 9 8 7 6 6 5 5 4 4 4 4 3 3 2 2 2 3 3 3 2
11 12 13 13 14 15 15 15 16 16 16 15 13 12 11 11 10 10 10 9 9 10 9 9 9 9 9 9 9 8 8 7 6 5 5 4 4 4 3 3 3 2 2 2 2 3 3 3 3
11 12 13 14 15 15 15 15 16 16 15 14 13 12 11 10 9 9 9 8 9 9 9 9 9 9 9 9 8 8 7 7 6 5 5 4 4 4 3 3 2 3 3 3 3 3 2 2 2
10 12 14 14 15 15 15 15 16 16 15 14 13 12 11 11 10 9 9 9 9 9 8 9 9 8 8 8 8 8 8 7 6 6 5 5 4 4 4 3 3 2 3 3 3 3 3 3 2
9 11 13 14 15 15 15 15 15 15 15 14 13 12 11 11 10 9 9 9 9 8 8 8 8 8 8 8 8 8 7 6 5 5 5 5 5 4 3 3 2 2 2 2 2 2 2 2 2
9 10 11 13 13 14 14 14 14 14 14 14 14 12 11 10 9 9 9 8 8 8 7 7 7 7 7 8 7 7 6 6 5 4 4 4 4 4 3 2 2 2 1 1 1 1 1 1 2
8 9 10 11 13 14 14 14 14 14 14 14 13 12 11 10 10 8 8 7 7 7 7 7 7 7 7 7 7 6 6 5 5 5 4 4 4 4 3 2 2 2 1 1 1 0 1 0 1
9 9 10 11 12 13 13 13 13 14 15 14 13 12 11 10 10 9 7 7 7 7 8 8 7 7 7 6 6 6 5 5 5 4 4 3 3 3 2 2 2 2 1 1 0 1 0 1 1
8 9 10 11 11 11 12 12 12 13 14 14 13 12 10 10 9 8 7 7 7 7 7 7 7 6 6 6 5 5 5 4 4 4 3 2 2 2 2 1 2 2 2 1 0 1 1 2 2
7 8 9 9 9 10 11 10 11 12 12 13 13 12 10 9 9 8 7 6 6 6 6 7 7 6 6 5 5 4 4 3 3 2 2 2 2 2 2 2 1 2 2 2 1 2 2 2 3
7 7 7 8 8 9 10 10 10 11 11 12 11 11 10 9 8 8 7 6 6 6 6 6 6 6 5 5 5 5 4 3 3 3 3 2 2 2 2 1 1 2 2 2 1 2 3 3 3
5 5 5 6 7 8 9 9 10 11 11 10 10 10 10 10 9 7 7 6 5 5 5 5 5 5 5 5 4 4 4 4 4 3 2 2 2 2 2 1 1 2 2 2 2 3 3 4 4
4 3 3 4 5 6 7 9 9 10 10 10 9 9 9 9 9 8 7 6 6 4 3 4 3 3 4 4 4 4 4 4 3 2 2 2 2 1 2 2 2 2 3 3 3 4 4 4 4
4 3 2 2 3 4 5 7 8 8 9 9 8 7 8 9 8 8 7 6 6 5 4 3 3 2 3 3 3 3 3 2 2 2 2 2 2 2 2 2 3 3 4 4 4 4 4 5 5
5 4 2 1 0 2 4 5 7 7 7 8 7 7 7 8 8 8 7 5 6 6 5 3 2 1 1 2 1 2 2 1 1 2 2 2 2 3 3 3 4 4 4 5 5 5 5 6 6
6 5 4 3 3 2 2 4 6 7 6 6 5 5 6 7 8 7 7 6 4 4 5 4 4 3 2 2 2 2 2 2 2 2 3 3 3 4 4 4 5 5 6 6 7 7 7 7 7
8 7 6 6 6 6 5 4 5 6 6 6 6 5 5 6 6 6 7 7 6 5 5 5 4 2 2 1 2 2 2 3 3 3 4 4 5 5 5 6 6 6 7 7 7 7 8 8 8
11 9 8 8 8 8 7 6 7 7 7 7 7 6 5 4 5 6 6 6 5 5 5 5 5 3 1 1 2 3 3 4 4 5 5 5 6 6 6 7 7 7 7 7 8 8 8 8 9
12 10 10 10 10 9 9 8 8 8 8 8 7 6 5 5 6 6 6 6 5 5 5 5 5 4 3 3 3 4 5 5 6 7 7 7 7 7 8 8 8 8 8 8 9 9 9 10 9
13 12 11 11 10 11 10 10 9 8 8 8 8 7 6 7 7 6 6 7 6 6 5 5 5 5 6 6 5 6 7 7 8 8 8 8 8 8 9 9 9 9 9 9 9 10 10 10 10
14 14 13 12 12 12 11 11 10 9 9 10 10 9 8 8 7 7 7 7 7 7 6 6 6 6 7 7 8 8 8 9 9 10 9 9 9 9 9 9 10 10 10 10 10 10 10 11 11
16 15 14 14 14 13 13 13 11 11 11 11 11 10 10 9 9 9 8 8 7 7 8 7 7 7 7 8 9 9 10 10 10 10 10 10 10 10 10 10 11 11 12 12 11 12 12 12 12
18 17 16 16 16 15 14 14 13 12 12 12 11 11 11 11 11 11 10 10 8 8 8 8 8 8 8 9 10 10 11 12 12 11 11 11 12 11 10 11 12 12 12 13 13 12 13 13 13
19 19 18 18 18 18 17 16 15 14 13 13 12 12 12 12 13 13 12 11 10 9 8 9 9 9 9 10 10 12 12 13 13 13 13 13 14 14 13 13 13 13 14 14 14 13 13 14 15
22 21 20 21 21 21 20 19 18 15 15 14 14 14 14 14 14 14 14 11 11 12 12 12 11 11 11 12 13 13 13 14 15 14 15 15 15 15 15 15 14 14 14 14 14 15 15 16 16
24 23 23 23 23 23 24 21 19 17 16 15 15 15 14 15 14 15 14 14 14 15 15 15 14 13 14 14 15 16 16 16 16 16 17 17 17 16 16 16 16 16 16 16 17 17 17 17 18
25 25 25 25 25 25 25 23 21 19 18 17 17 17 17 16 15 15 15 16 16 17 17 17 16 15 16 16 17 17 18 18 17 17 17 17 18 18 18 17 17 17 17 17 18 18 18 18 19
Wind_Direction
74 68 63 62 57 60 65 65 65 65 65 64 62 59 59 59 59 62 64 70 77 83 87 90 96 97 99 94 93 102 100 98 101 106 107 103 102 103 114 121 122 119 105 98 92 87 89 96 102
76 68 65 64 61 65 65 65 63 62 61 61 60 58 58 59 61 63 66 68 77 85 88 92 96 96 96 91 87 102 104 103 99 101 107 103 104 104 106 117 115 107 95 80 74 78 101 107 106
75 71 66 66 70 71 68 65 62 60 60 59 58 57 58 59 61 63 66 73 78 82 86 88 94 93 92 87 83 97 101 100 100 99 103 100 96 97 102 104 106 99 92 82 79 71 92 121 137
74 75 73 71 74 73 71 67 64 60 59 58 57 57 60 61 63 66 71 74 79 83 86 86 90 90 89 88 84 91 96 98 98 98 98 91 84 89 95 94 99 95 91 85 86 78 93 115 133
74 76 73 69 71 73 72 68 64 58 55 56 57 59 60 62 65 69 72 76 80 84 87 90 89 87 85 87 88 91 93 94 96 96 89 86 88 87 87 93 98 92 85 80 90 97 108 109 104
70 73 71 70 69 72 71 67 62 58 53 53 55 57 60 62 65 70 71 75 80 84 89 93 91 89 87 89 89 92 96 95 92 87 85 84 82 84 81 86 84 76 77 80 87 101 107 101 96
71 69 69 69 67 67 65 63 59 58 53 51 52 54 58 61 63 70 74 77 79 81 86 91 92 90 89 91 92 91 92 93 91 86 80 77 73 75 78 73 71 73 79 84 90 87 92 90 87
67 71 69 70 67 64 62 60 56 54 51 49 52 53 54 57 62 69 75 77 79 80 84 88 90 90 91 93 91 92 95 97 94 91 81 79 71 69 68 67 68 67 74 82 87 86 101 109 106
67 69 69 71 67 63 62 59 55 52 49 47 50 52 50 53 59 69 75 77 78 81 83 84 90 91 95 95 91 89 94 97 94 88 80 73 70 71 74 67 62 61 58 60 78 81 99 137 138
73 74 69 71 69 62 63 60 54 50 47 47 49 50 47 48 52 60 70 78 81 83 86 90 87 92 100 99 93 87 87 90 86 81 75 68 65 62 68 68 51 49 56 58 88 109 79 120 175
81 80 77 76 69 64 62 60 54 49 46 46 46 45 43 44 48 53 63 75 82 87 88 90 90 95 99 100 94 92 93 94 84 79 73 67 66 64 63 68 54 43 33 348 210 218 280 337 285
89 83 83 77 70 67 63 59 54 48 45 44 42 41 41 41 43 47 57 68 79 85 88 89 91 93 99 100 98 95 92 91 86 76 70 56 58 59 50 48 31 27 18 12 283 310 304 306 281
95 88 82 79 74 69 65 59 51 46 44 41 37 35 37 36 36 41 53 60 69 79 83 88 88 89 94 96 96 97 95 89 85 82 82 73 65 50 30 29 21 14 17 349 305 295 295 292 285
112 103 94 87 79 71 66 58 50 44 40 37 36 34 36 37 41 45 49 57 74 79 79 82 84 83 90 95 94 97 92 87 95 91 77 77 64 37 20 7 9 18 6 339 310 286 284 282 281
127 119 103 89 76 66 60 52 46 40 35 32 32 33 33 36 42 46 46 49 64 77 82 81 84 84 89 93 96 97 93 87 90 85 66 52 44 27 357 338 341 343 336 323 310 296 289 286 283
144 135 115 92 79 65 53 44 39 36 32 29 28 31 31 32 37 40 42 46 52 66 75 68 78 92 98 94 91 91 88 88 77 65 47 29 16 2 338 337 332 327 325 323 318 307 297 290 292
171 165 148 110 85 63 50 40 31 26 26 23 22 23 18 24 30 32 40 49 49 49 50 62 64 85 111 111 97 81 82 77 58 39 24 6 341 323 322 330 327 319 316 315 317 312 302 294 293
196 205 226 219 333 47 37 26 14 6 16 16 16 20 18 16 24 31 41 46 52 46 36 34 26 49 103 103 69 63 66 65 38 18 6 358 335 319 311 322 321 314 312 308 302 299 297 295 295
224 231 235 260 264 279 331 351 355 1 2 3 1 5 13 18 25 27 29 33 44 37 34 36 39 51 54 53 51 42 28 20 12 359 342 332 326 315 312 309 309 307 304 301 296 294 292 292 293
233 236 243 260 266 277 292 313 330 335 337 337 340 341 352 9 16 15 23 27 32 26 24 25 18 15 32 18 16 17 5 360 353 341 332 329 324 314 310 309 304 302 304 297 293 294 292 291 292
240 238 243 258 264 275 290 296 307 308 315 319 322 325 337 352 358 2 4 2 9 12 7 6 6 355 339 332 323 324 328 326 325 314 313 313 315 311 306 304 303 301 301 297 293 294 293 292 292
239 242 250 257 266 275 288 292 297 297 304 309 308 311 317 323 332 338 340 343 345 353 346 348 357 350 336 315 304 299 303 301 305 303 301 302 304 304 301 299 297 299 298 295 293 292 292 292 292
237 241 248 256 263 268 282 290 291 294 300 299 299 303 308 311 315 317 323 324 321 325 326 330 335 327 326 324 307 311 303 299 298 300 300 300 300 299 297 295 294 297 296 296 295 293 293 291 289
241 245 251 256 261 268 281 287 289 289 292 293 290 294 303 307 311 310 308 308 310 314 312 304 313 309 307 309 305 304 303 295 295 295 295 295 296 296 294 293 293 294 293 294 293 291 293 291 286
243 246 251 259 265 272 278 280 285 286 286 289 287 290 298 301 300 300 304 305 303 306 305 302 307 299 294 295 295 300 298 294 291 295 293 294 292 292 293 290 291 290 291 292 292 289 287 289 289
245 248 255 264 269 270 272 278 285 286 284 289 287 287 295 296 294 294 293 293 293 298 304 305 302 297 292 294 294 298 298 293 290 289 290 291 288 289 294 293 291 289 290 288 288 290 287 287 286
247 251 256 263 269 272 272 276 279 282 284 286 285 286 287 287 288 289 287 291 294 296 301 303 303 300 293 294 295 296 297 296 295 292 288 288 287 286 292 295 295 289 288 291 289 291 288 287 287
248 251 256 262 269 271 273 276 279 277 283 283 283 285 284 283 284 288 287 291 297 296 295 293 300 303 298 292 293 295 293 295 294 292 291 288 289 289 291 291 296 294 289 290 290 291 289 287 286
246 251 257 263 267 271 274 277 281 275 277 281 284 286 284 283 279 282 283 286 292 295 295 298 298 298 299 296 291 293 293 291 289 288 287 288 289 288 288 290 290 291 289 287 289 289 289 289 287
246 252 257 261 266 270 273 278 278 273 274 278 281 284 285 284 279 280 281 283 287 290 293 294 293 293 295 296 293 291 290 289 285 282 282 284 283 286 286 287 289 289 289 289 288 288 289 290 289
Height
5888 5888 5888 5888 5888 5886 5885 5884 5883 5883 5882 5882 5881 5880 5880 5880 5880 5882 5880 5878 5878 5877 5877 5877 5877 5877 5877 5877 5876 5877 5878 5880 5881 5882 5883 5884 5885 5886 5886 5887 5888 5889 5889 5889 5890 5890 5890 5891 5891
5890 5890 5891 5890 5889 5888 5887 5886 5885 5885 5884 5883 5882 5882 5881 5881 5880 5881 5880 5879 5879 5879 5878 5878 5878 5878 5878 5877 5877 5877 5879 5880 5882 5883 5884 5885 5885 5886 5887 5888 5889 5889 5889 5890 5890 5890 5890 5891 5891
5892 5892 5893 5892 5890 5890 5889 5888 5887 5887 5886 5885 5884 5883 5883 5882 5882 5881 5881 5880 5880 5880 5880 5879 5879 5879 5879 5879 5878 5878 5880 5881 5883 5884 5885 5885 5886 5887 5888 5888 5889 5889 5890 5890 5890 5891 5891 5891 5892
5894 5895 5895 5894 5892 5892 5891 5890 5889 5889 5888 5887 5886 5885 5884 5884 5883 5883 5882 5882 5882 5881 5881 5881 5881 5881 5881 5880 5880 5881 5882 5883 5884 5885 5886 5886 5887 5888 5888 5889 5889 5890 5890 5890 5891 5891 5891 5892 5892
5896 5896 5896 5895 5894 5894 5893 5892 5891 5890 5889 5888 5887 5887 5886 5886 5885 5884 5884 5884 5883 5883 5883 5882 5882 5883 5882 5882 5883 5883 5884 5885 5885 5886 5887 5887 5888 5888 5889 5889 5890 5890 5890 5891 5891 5891 5892 5892 5892
5898 5898 5898 5897 5896 5895 5894 5893 5892 5891 5891 5890 5889 5888 5888 5887 5887 5886 5885 5885 5885 5884 5884 5884 5884 5884 5884 5884 5885 5885 5885 5886 5887 5887 5888 5888 5888 5889 5889 5890 5890 5890 5891 5891 5891 5892 5892 5892 5892
5900 5899 5899 5898 5898 5897 5896 5895 5894 5893 5893 5892 5891 5890 5889 5889 5888 5888 5887 5887 5886 5886 5886 5886 5885 5886 5886 5886 5886 5886 5887 5887 5888 5888 5888 5889 5889 5889 5890 5890 5890 5891 5891 5891 5891 5892 5892 5892 5892
5901 5901 5900 5900 5899 5899 5898 5897 5896 5895 5894 5894 5893 5892 5891 5891 5890 5889 5889 5888 5888 5887 5887 5887 5887 5887 5887 5887 5888 5888 5888 5888 5889 5889 5889 5889 5890 5890 5891 5891 5891 5891 5891 5891 5892 5892 5892 5892 5892
5903 5904 5902 5901 5901 5901 5900 5899 5898 5897 5896 5895 5894 5893 5893 5892 5891 5890 5890 5889 5889 5889 5889 5888 5888 5888 5888 5888 5888 5889 5889 5889 5889 5890 5890 5890 5891 5891 5891 5891 5891 5891 5891 5892 5892 5892 5892 5892 5893
5904 5904 5904 5903 5903 5902 5901 5901 5900 5899 5898 5897 5896 5895 5894 5893 5893 5892 5891 5891 5890 5890 5890 5889 5889 5889 5889 5889 5889 5890 5890 5890 5890 5891 5891 5891 5891 5891 5891 5891 5891 5891 5891 5891 5892 5892 5892 5892 5893
5905 5905 5905 5905 5904 5904 5903 5903 5902 5901 5900 5899 5898 5896 5895 5895 5894 5893 5892 5892 5891 5891 5891 5890 5890 5890 5890 5890 5890 5891 5891 5891 5891 5891 5891 5892 5892 5892 5892 5891 5891 5891 5891 5891 5891 5892 5892 5892 5892
5906 5906 5906 5906 5906 5905 5905 5904 5903 5903 5902 5900 5899 5898 5897 5896 5895 5894 5893 5892 5892 5892 5891 5891 5891 5891 5891 5891 5891 5891 5891 5891 5892 5892 5892 5892 5892 5892 5892 5892 5891 5891 5891 5891 5891 5891 5891 5892 5892
5907 5907 5907 5907 5907 5906 5906 5905 5905 5904 5903 5902 5901 5900 5898 5897 5896 5895 5894 5893 5893 5892 5892 5892 5892 5892 5892 5892 5892 5892 5892 5892 5892 5892 5892 5892 5892 5892 5891 5891 5891 5891 5891 5891 5890 5891 5891 5891 5891
5909 5908 5908 5908 5908 5907 5907 5906 5906 5905 5904 5903 5902 5901 5900 5899 5897 5896 5895 5894 5893 5893 5893 5893 5892 5892 5892 5892 5892 5892 5892 5892 5892 5892 5892 5892 5892 5891 5891 5891 5891 5891 5891 5891 5890 5890 5890 5890 5890
5910 5910 5909 5909 5909 5908 5908 5908 5907 5906 5905 5904 5903 5902 5901 5900 5898 5897 5896 5895 5894 5894 5894 5893 5893 5893 5893 5892 5892 5892 5892 5892 5892 5892 5892 5892 5892 5891 5891 5891 5891 5890 5890 5890 5890 5890 5889 5889 5889
5910 5910 5910 5910 5909 5909 5910 5909 5908 5906 5906 5905 5904 5903 5902 5901 5899 5898 5897 5896 5895 5895 5894 5894 5894 5893 5893 5893 5893 5893 5892 5893 5892 5892 5892 5892 5891 5891 5891 5890 5890 5890 5889 5889 5889 5889 5889 5888 5888
5910 5910 5910 5910 5909 5909 5909 5909 5908 5907 5906 5906 5905 5903 5902 5901 5900 5899 5897 5896 5895 5895 5895 5894 5894 5893 5893 5893 5893 5893 5893 5893 5892 5892 5892 5891 5891 5890 5890 5890 5889 5889 5889 5888 5888 5888 5887 5887 5887
5910 5910 5910 5910 5910 5909 5909 5909 5908 5907 5907 5906 5905 5904 5903 5902 5900 5899 5898 5896 5896 5895 5895 5894 5894 5893 5893 5893 5893 5893 5893 5892 5892 5892 5891 5891 5890 5890 5890 5889 5889 5888 5888 5887 5887 5886 5886 5885 5885
5909 5909 5909 5910 5909 5909 5909 5908 5908 5907 5907 5906 5905 5904 5903 5902 5901 5900 5898 5897 5896 5896 5895 5894 5894 5893 5893 5893 5893 5893 5893 5892 5892 5891 5891 5890 5890 5889 5889 5888 5888 5887 5887 5886 5886 5885 5884 5884 5883
5908 5908 5908 5909 5908 5908 5908 5908 5907 5907 5906 5906 5905 5904 5903 5902 5901 5900 5899 5898 5897 5896 5895 5894 5894 5893 5893 5893 5893 5892 5892 5892 5891 5891 5890 5889 5889 5888 5888 5887 5886 5886 5885 5885 5884 5883 5883 5882 5881
5906 5907 5907 5907 5907 5907 5907 5907 5907 5906 5906 5905 5904 5904 5903 5902 5901 5899 5899 5898 5897 5896 5895 5894 5893 5892 5892 5892 5892 5892 5891 5891 5890 5890 5889 5888 5888 5887 5886 5885 5885 5884 5883 5882 5882 5881 5881 5880 5879
5904 5905 5905 5905 5906 5906 5906 5906 5906 5905 5905 5904 5903 5903 5902 5901 5900 5899 5898 5897 5896 5895 5894 5893 5893 5892 5891 5891 5890 5890 5890 5890 5889 5888 5887 5886 5886 5885 5884 5883 5883 5882 5881 5880 5880 5879 5878 5878 5877
5903 5903 5903 5903 5903 5904 5904 5904 5905 5904 5903 5903 5902 5902 5901 5900 5899 5898 5897 5896 5895 5894 5893 5892 5892 5891 5890 5889 5889 5888 5888 5888 5887 5886 5885 5884 5884 5883 5882 5881 5880 5879 5879 5878 5877 5877 5876 5875 5874
5900 5901 5901 5901 5901 5902 5902 5902 5902 5902 5902 5901 5901 5900 5899 5898 5897 5896 5895 5894 5894 5893 5892 5890 5890 5889 5888 5888 5887 5887 5886 5885 5885 5884 5883 5882 5881 5880 5879 5879 5878 5877 5876 5875 5874 5874 5873 5872 5871
5897 5898 5899 5898 5899 5899 5900 5899 5900 5900 5900 5899 5898 5898 5897 5896 5896 5894 5893 5892 5892 5891 5890 5889 5887 5887 5886 5886 5885 5885 5884 5883 5882 5881 5880 5879 5878 5877 5877 5876 5875 5874 5873 5872 5871 5870 5869 5869 5868
5893 5895 5896 5896 5896 5897 5897 5896 5898 5898 5897 5896 5896 5896 5895 5894 5893 5892 5891 5890 5889 5888 5887 5886 5885 5884 5883 5883 5882 5882 5881 5880 5879 5879 5878 5877 5875 5874 5873 5873 5872 5870 5870 5869 5868 5867 5866 5865 5864
5890 5891 5892 5893 5892 5893 5893 5894 5895 5895 5894 5894 5893 5893 5892 5892 5891 5890 5889 5887 5887 5886 5885 5884 5883 5882 5881 5880 5879 5879 5878 5877 5876 5875 5874 5873 5872 5870 5870 5869 5868 5867 5866 5865 5864 5863 5862 5861 5860
5886 5887 5888 5888 5888 5888 5889 5890 5891 5891 5891 5891 5891 5890 5889 5888 5888 5887 5886 5885 5884 5883 5881 5880 5879 5879 5878 5877 5876 5875 5875 5874 5873 5872 5871 5869 5868 5867 5866 5865 5864 5863 5862 5861 5860 5859 5858 5857 5856
5881 5882 5883 5884 5884 5885 5885 5888 5888 5887 5887 5887 5887 5886 5885 5885 5884 5884 5883 5882 5880 5880 5878 5877 5876 5875 5874 5873 5872 5871 5871 5870 5868 5868 5867 5865 5864 5863 5862 5861 5860 5859 5858 5857 5856 5855 5854 5853 5852
5876 5877 5879 5880 5880 5880 5880 5884 5882 5882 5883 5883 5883 5882 5881 5881 5880 5880 5879 5878 5877 5876 5875 5873 5872 5871 5870 5869 5868 5867 5866 5865 5864 5863 5862 5861 5859 5858 5857 5857 5855 5854 5853 5852 5851 5850 5849 5848 5847